Location: Crescent
(42.8242°N, 73.7329°W)
Time: 07:44:25
(UTC+00:00)

Vanguard 1 - Pass Details

Date: 18 February 2026
Orbit: 653 x 3818 km, 34.2° (Epoch: 12 March)

Event Time Altitude Azimuth Distance (km) Brightness Sun altitude
Rises 21:59:18 0° 257° (WSW) 5,091 16.3 4.6°
Reaches altitude 10° 22:02:04 10° 254° (WSW) 4,423 16.2 4.1°
Maximum altitude 22:15:10 64° 177° (S) 3,140 12.8 1.9°
Drops below altitude 10° 22:36:49 10° 103° (ESE) 6,872 13.8 -1.9°
Sets 22:42:27 0° 101° (E) 7,955 14.1 -3.0°
